Location: Byszew
(52.1813°N, 19.2693°E)
Time: 02:04:35
(UTC+00:00)

Envisat - Pass Details

Date: 01 February 2022
Orbit: 764 x 765 km, 98.2° (Epoch: 28 May)

Event Time Altitude Azimuth Distance (km) Brightness Sun altitude
Rises 05:32:47 0° 5° (N) 3,244 6.1 -8.0°
Reaches altitude 10° 05:35:46 10° 347° (NNW) 2,314 5.2 -7.6°
Maximum altitude 05:39:05 18° 306° (NW) 1,824 4.4 -7.1°
Drops below altitude 10° 05:42:24 10° 265° (W) 2,305 4.9 -6.6°
Sets 05:45:22 0° 247° (WSW) 3,227 5.8 -6.2°
